Theta_e
336 337 337 336 336 336 335 335 334 333 331 330 331 333 334 334 333 332 331 331 332 332 332 332 331 331 329 328 325 324 323 323 323 323 322 321 320 318 317 316 316 317
336 337 337 336 336 336 335 336 335 333 331 330 331 334 335 335 334 332 332 332 332 332 332 332 331 330 330 328 326 324 324 323 323 323 322 321 318 316 314 313 312 311
337 337 337 336 336 336 336 336 335 334 332 331 332 335 336 335 334 332 332 333 332 332 332 331 330 330 330 328 326 325 325 324 324 323 322 319 315 312 310 309 307 306
337 337 337 337 337 336 336 336 336 334 332 332 333 336 336 336 334 333 333 333 333 332 332 331 330 330 329 328 326 325 325 324 323 322 320 315 310 308 306 304 303 303
337 337 337 337 337 337 337 337 335 333 331 332 334 336 337 336 334 333 333 333 332 332 332 331 330 330 329 328 326 325 324 323 322 320 315 309 306 304 302 301 301 301
337 338 337 337 337 337 337 336 335 331 329 332 335 336 337 336 334 334 333 333 332 331 331 330 330 330 329 327 326 325 324 322 321 317 310 305 302 301 301 301 301 300
338 338 338 338 338 337 337 336 334 330 330 333 336 336 337 336 335 334 333 332 331 331 330 330 330 329 328 327 325 324 323 321 318 312 306 302 301 300 300 300 300 300
338 338 338 338 338 337 337 336 333 331 332 334 336 336 337 336 335 334 333 332 332 331 330 330 329 329 327 326 324 323 322 318 314 308 302 301 300 300 300 300 300 300
338 339 338 338 338 338 338 336 333 332 333 335 335 336 337 336 335 334 333 332 332 331 330 329 329 328 327 324 323 323 320 315 309 303 301 300 300 300 300 299 299 299
339 339 339 339 338 338 337 335 333 334 335 335 334 336 337 336 336 335 333 332 332 331 330 328 328 328 326 324 323 322 317 310 305 301 300 300 299 299 299 299 299 299
339 339 339 339 338 338 337 335 334 335 335 335 335 336 337 336 335 334 333 332 332 330 329 327 327 327 325 323 323 320 312 306 302 300 300 299 299 299 299 299 299 299
339 339 339 339 339 338 337 336 335 335 336 335 335 336 337 336 334 334 333 332 331 330 328 327 327 326 324 323 322 316 308 303 301 299 299 299 299 299 299 298 298 298
339 339 339 340 339 338 337 337 336 335 336 336 335 336 337 335 333 333 333 331 331 329 328 327 327 325 323 323 320 313 305 302 300 299 299 299 299 298 298 298 298 298
339 339 340 339 338 338 338 337 336 335 335 336 336 336 336 334 333 333 333 331 331 329 328 327 326 324 323 322 318 310 303 300 300 299 299 299 298 298 298 298 298 298
339 339 339 339 338 338 338 337 337 336 335 335 335 335 335 333 332 333 333 332 332 329 328 327 325 324 323 320 316 309 302 300 299 299 299 299 298 298 298 298 298 298
339 338 338 338 337 337 338 338 337 337 336 335 334 334 334 332 333 334 333 332 332 330 328 326 324 324 322 319 314 307 301 299 299 299 298 298 298 298 298 298 298 297
338 338 338 337 336 336 337 338 338 338 337 335 333 333 333 332 333 334 333 332 331 330 327 325 324 324 323 317 311 305 301 299 299 299 298 298 298 298 298 298 298 298
338 338 338 338 336 335 336 338 338 338 337 335 333 333 332 332 333 334 332 331 331 329 326 325 324 325 323 317 308 303 300 300 299 299 298 298 298 298 298 299 299 298
339 338 338 338 337 335 336 337 339 338 337 335 333 332 331 332 334 334 332 330 330 329 326 325 325 325 323 317 308 302 300 300 299 299 298 298 299 299 299 300 300 299
338 338 338 338 337 336 337 339 339 339 337 335 334 332 331 333 334 334 332 331 330 328 327 326 325 325 324 319 310 303 301 300 299 299 299 299 299 299 300 301 301 300
339 338 338 338 337 336 336 337 338 338 338 336 336 334 332 333 334 334 332 331 330 328 327 326 325 325 325 321 313 304 301 300 299 299 299 299 298 299 301 302 301 300
338 338 338 338 337 337 337 336 335 337 338 338 336 335 333 333 333 334 332 331 330 328 326 326 325 324 324 323 316 307 302 301 299 299 299 299 299 300 302 303 301 300
338 338 339 338 337 336 337 336 336 336 337 337 337 335 332 332 334 334 332 331 330 328 327 326 326 324 324 323 318 311 305 302 300 300 299 299 299 302 303 302 301 301
338 338 338 338 337 336 334 336 337 337 338 338 337 335 332 331 333 333 331 331 330 328 327 327 326 324 324 323 320 313 307 305 303 301 299 299 301 303 304 302 301 302
338 338 337 337 336 335 335 335 336 337 338 337 336 334 332 331 333 333 331 331 330 328 327 327 326 325 323 322 320 315 310 310 308 302 299 301 303 304 303 301 302 303
337 337 336 335 334 334 335 336 336 336 337 337 335 333 333 332 333 332 331 330 330 328 327 327 326 325 323 322 321 318 315 313 310 302 300 303 305 304 303 301 301 303
Wind_Speed
43 43 41 39 37 34 32 29 28 29 27 25 23 22 22 21 20 21 20 18 17 18 18 18 18 17 16 15 14 14 15 16 17 17 16 16 15 14 14 13 12 12
44 43 42 40 38 36 34 30 28 28 27 25 23 21 21 20 20 20 19 18 18 18 18 18 18 17 16 15 15 14 15 16 18 18 17 15 14 13 13 12 12 11
45 44 43 41 39 37 35 31 28 28 27 25 23 21 21 21 20 19 19 18 18 19 19 19 18 17 16 16 16 15 15 16 17 17 16 14 13 12 12 12 11 10
45 44 43 41 39 38 35 31 29 29 28 26 23 21 21 21 19 18 18 18 19 19 20 20 19 18 18 17 17 16 16 16 16 16 14 13 12 12 12 11 10 9
45 44 43 41 39 38 36 32 30 30 29 26 23 22 22 21 19 19 18 18 19 20 20 20 20 19 19 18 17 17 16 16 15 14 13 13 12 11 10 10 10 9
45 44 43 42 40 38 36 33 31 30 29 26 22 22 22 22 20 19 18 18 19 20 20 20 20 20 19 18 17 17 16 15 14 13 13 12 12 11 10 10 10 9
46 45 43 42 40 38 36 33 31 31 29 25 22 22 23 22 20 18 18 18 19 19 20 20 20 19 18 18 17 16 16 15 14 13 13 12 11 10 10 10 9 9
47 45 43 42 40 39 36 33 32 31 28 25 23 24 24 22 19 18 18 18 19 20 20 20 20 19 18 17 17 16 16 14 14 13 13 12 11 10 10 10 9 8
48 46 44 42 40 39 37 34 33 31 29 26 25 24 23 22 20 19 18 19 20 20 21 21 20 18 17 17 17 16 15 14 13 13 12 11 10 10 10 9 9 8
49 47 44 43 41 39 36 34 33 31 29 26 24 24 23 22 21 20 20 20 20 21 21 21 19 18 17 17 17 16 14 13 13 12 12 11 11 10 10 9 8 8
50 48 45 44 42 39 35 33 33 31 29 27 25 25 24 22 21 21 21 22 21 22 22 20 18 18 18 17 16 15 14 14 13 12 12 12 11 11 10 9 8 7
51 49 47 44 42 38 33 32 32 31 29 28 27 27 25 23 23 22 22 23 22 22 21 19 18 18 18 17 16 15 15 15 14 13 13 12 12 11 11 9 8 8
51 50 48 45 42 37 32 31 31 31 31 30 28 27 26 24 24 24 23 23 23 22 20 18 18 18 17 16 15 14 16 16 15 15 14 13 13 12 11 10 9 9
51 49 48 46 41 36 33 32 32 30 30 30 29 28 26 25 25 25 24 24 23 22 19 18 19 18 17 15 14 15 16 16 15 15 15 14 14 13 12 11 11 10
50 48 47 45 40 36 34 35 34 30 27 28 29 28 26 25 26 26 26 24 24 22 20 19 19 18 16 14 14 15 17 16 16 15 15 15 14 13 13 12 12 11
48 47 46 44 40 36 35 37 37 33 28 26 27 27 27 27 28 29 26 24 24 23 21 20 19 16 14 14 14 15 16 16 16 16 15 15 14 13 13 13 13 12
47 46 45 43 39 36 36 38 39 36 31 26 25 27 28 29 31 30 26 24 24 22 21 19 17 14 13 13 14 16 17 16 16 16 16 16 14 14 14 13 13 13
47 46 45 43 40 36 35 39 41 38 33 27 25 28 30 30 31 28 24 24 24 22 21 19 16 13 12 13 15 17 17 17 16 16 16 16 15 15 15 13 13 13
46 46 44 43 40 36 36 40 42 39 35 29 24 27 32 34 33 28 24 25 25 23 21 18 15 13 13 13 15 17 18 17 17 16 16 16 15 15 14 12 13 14
46 45 44 43 40 36 37 41 40 38 36 31 25 26 31 36 35 29 25 26 25 24 21 17 15 15 13 13 14 17 18 18 17 17 17 16 15 15 13 12 14 15
46 45 44 43 39 37 38 39 38 39 38 34 30 28 29 33 35 32 28 27 26 25 23 18 16 15 14 13 14 16 18 18 18 19 19 17 17 16 13 12 14 14
45 44 44 42 40 39 39 37 36 38 38 36 35 31 28 31 36 37 32 28 27 27 24 18 16 16 15 14 14 16 18 18 19 20 20 19 19 16 14 14 14 13
44 44 43 42 40 39 41 40 38 37 38 39 38 32 28 31 37 40 35 29 28 30 25 19 18 18 16 16 15 16 18 19 20 21 20 20 18 15 14 16 15 13
43 42 42 42 40 38 39 40 39 39 42 41 36 30 28 30 35 40 38 31 28 29 24 19 19 18 18 18 17 17 18 18 19 21 21 20 18 16 16 17 16 14
42 41 40 40 38 38 40 41 41 43 42 37 30 30 31 31 35 40 39 32 28 28 25 21 20 20 20 20 18 19 19 19 19 21 23 21 17 16 17 18 17 16
41 40 39 38 36 36 39 42 43 41 37 34 32 33 33 34 38 42 40 34 30 29 28 25 22 21 22 20 18 19 19 19 20 23 23 20 15 15 17 18 18 18
Wind_Direction
229 229 230 231 231 233 233 232 234 233 232 234 236 239 241 245 249 249 250 253 255 257 260 262 265 269 275 276 270 263 259 256 256 257 259 262 262 257 252 248 246 247
229 229 230 231 231 233 233 232 235 235 233 234 237 239 241 246 250 249 249 252 256 260 262 264 266 269 275 276 270 265 262 260 259 259 260 263 261 254 247 246 246 248
229 229 230 231 232 233 232 232 234 235 233 234 235 237 240 246 250 247 247 251 256 260 262 264 265 268 273 273 269 265 264 264 261 259 260 259 254 247 244 245 246 246
229 230 231 232 233 234 233 232 232 231 230 231 232 233 238 245 247 244 245 251 256 259 260 262 263 265 271 272 269 267 266 267 264 260 257 252 244 240 241 242 240 237
229 229 230 231 232 234 233 231 231 229 228 230 230 231 237 242 242 240 244 251 256 258 258 260 261 264 270 273 271 269 268 268 265 258 250 242 236 234 235 233 228 227
229 229 230 231 232 233 232 230 229 227 228 230 231 232 237 241 239 238 245 252 256 258 258 258 260 265 271 274 274 272 271 269 262 250 240 234 230 227 223 219 218 219
228 228 229 230 231 232 232 229 226 224 226 228 231 234 236 239 239 239 245 253 256 256 256 256 259 266 272 274 273 271 271 266 254 239 231 228 224 219 215 213 215 217
227 228 228 229 231 232 230 227 224 221 221 224 229 233 236 239 241 241 246 252 253 253 253 254 258 266 271 272 270 270 268 259 243 231 225 221 217 215 212 212 217 219
226 227 228 229 231 231 229 225 222 219 218 222 227 231 234 237 239 242 246 250 251 251 250 251 257 265 269 269 269 269 264 248 233 225 219 216 213 213 213 214 219 221
225 226 227 228 230 231 228 224 220 217 216 220 226 230 234 237 238 239 243 246 248 248 248 249 255 262 266 267 268 266 254 236 225 219 213 210 209 211 214 216 218 223
223 225 226 228 229 230 227 223 220 216 216 219 225 229 233 236 236 236 239 243 245 247 247 249 254 261 263 264 266 259 241 226 218 211 208 208 207 208 211 213 216 220
222 225 226 227 228 227 225 222 219 216 217 219 224 229 233 233 232 233 239 243 246 247 246 246 251 257 259 260 259 247 228 219 213 206 204 205 207 208 208 208 212 218
221 224 225 226 226 224 222 219 217 218 220 221 224 228 230 230 229 231 237 243 246 247 244 244 249 253 255 257 251 235 221 216 212 206 202 203 206 209 208 206 210 217
221 223 224 225 224 222 219 217 217 220 222 222 224 227 228 228 228 231 237 242 245 244 241 242 246 250 252 253 245 227 217 215 212 207 204 203 205 208 207 208 212 217
220 221 222 223 222 220 217 216 217 220 221 221 222 225 225 226 228 231 235 241 242 239 236 237 242 247 251 252 241 224 216 214 211 207 206 205 206 207 206 209 213 218
217 219 220 220 220 219 217 217 217 218 219 219 221 223 221 221 226 229 231 238 240 234 231 234 239 245 251 249 235 222 217 215 211 207 206 207 206 207 208 210 214 219
216 218 219 220 220 218 218 219 219 218 218 216 218 221 219 222 226 225 228 236 237 231 228 232 237 245 251 245 228 216 215 215 212 208 207 207 205 206 209 212 218 221
215 217 218 220 220 218 218 220 219 219 216 213 217 220 217 222 225 221 227 236 233 227 225 227 234 242 247 241 224 213 213 213 210 208 207 206 205 205 207 211 220 225
215 217 218 220 220 219 220 221 220 219 216 212 219 222 220 223 221 217 227 235 229 223 221 222 230 237 243 239 222 213 213 210 206 206 206 208 208 208 207 212 222 226
214 217 218 220 221 221 221 221 220 221 218 215 221 227 227 226 219 214 226 234 226 218 215 218 228 232 239 239 223 215 213 208 204 204 205 207 209 208 212 222 229 226
215 217 218 219 220 222 222 221 222 224 221 218 220 225 231 230 220 214 224 232 223 213 209 214 222 226 233 235 225 217 213 207 203 204 205 206 205 207 218 231 230 221
216 216 217 218 220 222 221 221 224 225 223 223 222 223 230 234 225 217 220 227 221 210 206 210 216 220 225 228 223 216 213 208 205 206 207 206 205 209 222 229 223 214
216 217 218 219 220 221 221 222 223 223 224 225 222 221 228 235 229 218 215 222 219 207 202 206 211 214 218 221 220 215 211 208 206 206 206 204 206 214 224 225 218 213
217 218 219 219 220 224 225 224 224 225 226 224 221 224 231 235 232 222 215 220 219 208 201 203 207 210 214 216 216 211 208 208 210 208 203 201 208 218 222 221 217 214
218 219 221 222 225 228 227 225 224 224 223 221 225 233 234 234 235 227 219 220 220 209 205 206 206 210 214 215 214 210 206 211 213 208 201 200 209 218 219 218 216 216
219 221 224 227 229 229 227 224 222 220 220 221 226 233 235 236 236 227 219 219 218 210 209 211 210 213 216 215 216 215 214 216 213 205 200 201 209 218 220 218 216 217